Wind_Speed
17 16 15 15 15 16 15 14 14 13 13 13 13 12 12 12 12 11 11 12 13 13 14 14 14 14 15 15 15 15 15 15 15 15 15 16 16 16 17 17 18 18 18
17 16 15 14 15 15 15 15 14 14 13 13 12 12 12 12 12 12 12 12 13 14 14 14 14 14 15 15 15 15 16 16 16 16 16 17 17 17 17 18 18 18 18
17 16 15 15 15 14 14 14 13 13 14 13 14 13 13 13 13 13 13 14 14 15 15 15 15 16 16 15 16 17 17 16 17 17 17 18 18 18 18 18 19 18 18
16 15 14 15 14 14 13 13 13 13 14 15 15 14 14 14 14 14 14 15 14 15 15 15 15 16 16 16 16 17 17 17 17 18 18 18 18 18 19 19 19 19 19
15 14 14 14 14 14 13 13 13 14 14 14 14 14 14 15 15 15 15 15 15 15 15 15 15 16 16 16 16 17 17 18 18 18 18 19 19 20 19 19 20 20 19
14 14 14 14 15 14 13 13 13 14 14 13 13 13 14 14 15 15 16 15 15 15 16 16 16 16 16 17 17 17 17 17 18 18 19 19 20 20 20 19 20 20 20
15 14 14 15 15 15 14 14 13 13 13 13 13 14 14 14 14 14 15 15 15 15 16 16 16 16 17 17 18 17 17 17 18 18 19 19 19 20 20 20 20 20 20
15 14 15 15 14 14 14 14 14 14 14 13 14 14 14 14 15 16 15 16 16 16 16 16 16 16 17 18 18 18 18 18 19 19 20 20 20 21 21 20 20 20 21
14 13 14 14 14 14 14 14 15 15 15 14 14 14 15 15 16 16 16 16 16 17 17 17 16 16 17 18 19 19 19 20 20 20 20 20 21 21 21 21 21 21 21
14 14 14 14 14 15 15 15 16 15 15 15 16 15 16 17 17 18 18 17 17 18 18 17 16 17 18 18 19 19 20 20 20 21 21 21 21 21 21 21 22 21 21
15 15 15 16 15 16 16 16 17 16 16 16 17 16 17 17 18 18 18 18 18 18 18 19 18 18 18 19 20 20 20 20 21 21 22 21 21 21 21 22 22 22 22
17 17 17 17 17 17 17 17 17 17 17 17 17 18 18 18 18 19 19 20 20 19 20 20 20 19 19 20 20 21 21 22 22 22 22 22 22 22 22 22 22 22 22
17 18 18 19 19 19 18 18 18 18 18 18 18 18 19 19 18 19 19 20 20 21 21 21 21 21 21 21 22 22 22 23 23 23 23 22 22 23 23 23 23 23 23
18 19 19 20 20 20 19 19 19 19 19 20 19 19 19 19 19 20 20 20 21 21 21 21 22 22 22 22 23 23 23 23 23 23 23 23 23 23 24 24 24 25 25
20 20 20 20 20 20 20 20 20 20 20 20 21 21 21 21 21 21 21 21 21 22 22 22 22 22 22 23 23 23 23 23 23 24 24 24 24 25 25 25 25 26 26
20 21 21 21 21 21 21 21 22 22 21 21 21 22 22 22 23 23 22 22 23 23 23 23 23 23 23 23 23 24 23 23 24 25 25 25 25 26 26 26 25 25 25
21 21 21 21 21 21 22 22 22 22 23 23 23 23 23 24 24 24 24 24 24 24 24 25 24 24 24 25 25 25 25 25 26 26 26 26 26 25 25 26 26 26 26
21 22 22 22 22 23 23 23 23 23 23 24 24 24 25 25 25 25 25 25 25 25 25 26 26 26 26 26 26 25 26 26 26 26 26 26 25 25 25 25 25 26 26
21 21 22 23 23 23 23 23 23 24 24 25 25 26 26 26 26 26 26 26 26 26 26 26 27 27 27 27 27 27 26 26 26 26 26 26 25 25 25 24 25 25 26
21 22 23 23 24 24 24 24 25 25 26 26 27 27 27 27 27 27 27 27 27 28 28 28 28 28 28 28 28 27 27 26 26 25 25 25 25 25 25 25 25 25 25
22 23 23 24 24 25 25 25 26 26 26 26 26 26 26 27 28 28 28 28 28 28 29 29 29 29 29 28 28 27 27 26 26 25 25 25 25 26 26 25 25 25 25
21 22 22 23 24 24 25 25 25 25 25 25 26 27 27 27 27 28 28 28 29 29 29 28 28 28 28 27 27 27 27 26 25 26 25 25 25 25 25 25 24 24 24
22 22 23 23 23 23 24 24 24 24 24 25 25 26 27 27 27 27 27 28 28 28 28 27 27 26 26 26 26 26 26 26 26 26 26 26 26 26 25 25 24 24 25
22 22 22 22 22 22 23 23 22 23 23 24 25 26 26 26 27 27 27 27 27 26 26 27 26 26 25 25 25 25 26 25 25 26 26 26 26 26 25 25 24 24 25
22 22 22 22 21 22 22 22 23 23 24 24 25 26 26 26 27 27 27 27 26 26 25 25 25 25 24 24 25 25 26 26 26 26 26 26 26 26 26 25 25 25 25
22 22 22 22 21 21 23 23 23 24 24 25 25 26 27 27 27 27 27 26 25 25 25 25 25 25 25 25 26 26 26 27 27 26 26 26 25 26 25 25 25 25 26
Wind_Direction
284 285 285 284 285 287 285 280 278 276 275 276 275 277 279 277 278 276 276 272 273 273 273 274 274 273 272 271 272 273 273 271 273 274 277 278 278 281 281 282 282 282 281
281 282 282 282 284 284 281 277 274 273 273 274 274 275 276 276 276 279 281 279 276 276 277 278 277 276 276 272 271 273 275 273 271 273 276 279 281 282 283 284 284 283 282
277 278 278 279 282 282 279 275 273 271 271 274 275 272 275 275 276 278 279 280 278 278 280 282 279 278 277 273 273 274 276 273 272 274 278 280 282 282 283 284 284 283 283
274 273 276 279 281 281 281 276 273 274 274 278 274 275 275 275 276 278 279 280 281 281 281 281 281 278 276 275 275 274 274 275 276 278 281 281 282 283 284 283 284 284 283
273 271 273 276 277 278 278 277 274 275 277 278 275 276 275 275 278 281 280 282 281 282 279 278 279 279 276 276 277 277 275 277 279 280 282 282 282 283 283 283 284 285 285
274 271 271 272 272 274 275 277 278 276 275 277 275 274 277 280 281 283 284 283 283 282 282 280 278 277 277 276 278 278 278 280 282 282 283 283 282 282 282 283 284 285 285
274 273 270 270 270 271 273 273 276 274 273 274 275 274 276 281 283 284 287 287 287 286 285 284 280 277 280 280 282 283 282 283 284 284 284 283 282 281 282 284 284 285 286
272 271 268 268 269 269 269 270 272 272 272 273 275 276 276 279 284 287 285 289 291 289 287 285 282 280 280 281 281 282 283 285 286 285 285 283 282 281 281 283 284 285 287
272 269 266 265 266 268 270 271 271 272 270 272 274 276 277 279 282 285 287 288 289 290 288 284 282 282 284 283 282 283 283 284 286 287 286 284 283 283 283 284 285 286 286
268 267 265 262 263 267 269 269 271 273 270 270 273 276 278 280 283 284 285 286 285 287 285 282 280 280 282 285 286 286 286 286 286 287 286 285 284 285 285 285 285 285 285
264 265 265 265 265 269 271 271 272 273 271 272 274 277 280 283 284 283 283 285 286 285 284 283 281 280 281 283 285 286 286 286 286 287 287 286 285 286 287 286 284 284 285
262 262 263 265 267 270 272 272 271 273 273 275 277 278 280 284 285 284 283 284 285 286 285 283 281 281 282 283 283 284 285 286 286 286 287 285 284 285 288 287 286 285 286
261 261 262 265 268 269 272 272 272 273 275 276 278 280 282 283 286 287 285 285 285 285 283 282 282 282 283 284 285 285 286 287 288 286 285 284 282 283 285 285 285 285 286
263 264 265 266 269 269 270 270 271 273 274 274 277 280 281 282 284 286 287 286 285 284 283 283 282 281 282 285 286 287 287 288 288 286 284 283 283 283 284 284 284 285 286
263 263 264 267 269 268 266 267 270 272 273 274 275 278 280 281 282 284 285 286 287 287 285 283 283 282 284 285 287 287 287 288 288 287 285 283 282 283 284 284 285 285 285
263 263 264 265 266 266 266 267 270 272 273 274 276 278 280 281 281 282 283 285 288 288 286 286 285 283 283 284 285 285 285 287 288 287 286 285 285 284 284 284 284 285 285
262 263 262 263 265 267 267 268 270 273 273 275 278 280 281 283 283 283 283 285 286 286 286 286 285 285 284 284 284 284 285 286 287 287 286 285 285 285 285 286 285 284 285
261 261 262 262 265 266 267 269 270 272 273 276 278 280 281 282 283 283 284 284 285 285 285 285 285 283 283 283 284 285 286 287 287 287 286 285 285 287 288 288 287 286 286
261 260 261 262 264 265 266 268 271 274 275 276 277 279 280 282 283 284 284 285 285 284 284 284 283 282 282 282 283 285 285 286 286 286 285 285 284 285 287 288 289 288 287
263 263 263 263 265 266 266 268 272 274 275 277 277 278 280 282 284 284 285 285 285 284 284 283 283 283 282 282 282 282 283 283 284 285 286 285 284 285 286 288 288 288 289
267 267 267 265 265 266 267 269 272 274 274 275 277 280 282 283 284 283 283 283 283 284 284 283 283 284 282 281 280 280 282 281 280 282 284 285 284 284 285 285 287 289 290
269 269 271 271 268 269 269 270 272 272 273 276 279 281 283 284 284 283 283 282 283 284 284 284 283 283 281 279 279 279 279 279 279 279 281 284 286 286 287 287 287 288 290
273 274 273 272 271 270 268 270 272 273 275 278 280 281 283 284 285 286 285 285 284 284 285 284 282 281 281 280 280 280 279 277 279 281 281 282 283 284 286 287 287 288 289
273 273 274 275 274 274 272 270 272 274 277 279 281 282 283 284 285 287 288 287 284 284 283 281 280 280 278 278 279 280 280 279 279 280 281 283 283 283 284 285 287 289 291
274 275 276 275 273 274 276 276 274 276 278 279 281 282 282 284 286 287 288 287 284 282 281 280 279 278 277 277 278 279 279 280 281 281 281 282 282 283 283 284 285 287 289
275 276 275 274 275 278 280 279 277 277 278 279 281 282 283 284 285 287 287 286 284 282 281 280 278 277 276 276 279 280 281 281 280 282 282 282 281 281 281 282 284 286 289
Height
5832 5832 5831 5830 5829 5829 5828 5828 5827 5827 5826 5826 5826 5825 5825 5824 5824 5824 5824 5823 5823 5823 5823 5823 5822 5822 5821 5821 5821 5820 5820 5820 5819 5819 5818 5817 5817 5816 5815 5814 5812 5811 5810
5827 5827 5827 5826 5825 5824 5824 5823 5823 5823 5823 5822 5822 5822 5822 5822 5821 5821 5820 5820 5820 5820 5819 5819 5818 5818 5817 5816 5816 5816 5816 5815 5815 5815 5814 5813 5813 5812 5810 5809 5808 5807 5805
5822 5822 5822 5822 5821 5820 5820 5819 5819 5819 5819 5819 5819 5819 5819 5818 5818 5817 5817 5817 5816 5816 5816 5815 5814 5814 5813 5812 5812 5812 5812 5811 5811 5811 5810 5809 5808 5807 5806 5805 5803 5802 5801
5817 5817 5818 5817 5817 5816 5816 5815 5815 5815 5815 5815 5815 5815 5815 5814 5814 5813 5813 5813 5813 5812 5811 5811 5810 5809 5809 5808 5808 5808 5807 5807 5806 5806 5805 5804 5803 5802 5801 5800 5799 5797 5796
5813 5813 5813 5813 5813 5812 5812 5811 5811 5811 5811 5811 5811 5811 5811 5810 5810 5810 5809 5809 5809 5808 5807 5806 5806 5805 5805 5804 5804 5803 5803 5802 5802 5801 5800 5799 5798 5798 5797 5795 5794 5793 5791
5808 5808 5808 5809 5809 5808 5808 5808 5807 5807 5807 5807 5807 5807 5807 5807 5807 5806 5805 5805 5804 5804 5803 5802 5801 5801 5800 5800 5799 5799 5798 5797 5797 5796 5796 5794 5793 5793 5792 5790 5789 5788 5787
5804 5804 5804 5804 5804 5804 5804 5804 5804 5803 5803 5803 5803 5803 5804 5803 5803 5802 5801 5801 5800 5799 5798 5797 5796 5796 5796 5796 5795 5794 5793 5793 5792 5791 5790 5789 5788 5788 5787 5785 5784 5783 5781
5798 5799 5799 5799 5799 5799 5799 5800 5800 5799 5799 5799 5800 5800 5800 5800 5799 5798 5798 5797 5796 5795 5794 5793 5792 5792 5791 5791 5790 5790 5789 5788 5787 5786 5785 5784 5783 5782 5781 5780 5778 5777 5776
5794 5794 5794 5795 5795 5795 5795 5795 5795 5795 5795 5795 5796 5796 5796 5796 5795 5794 5793 5793 5792 5790 5789 5788 5788 5787 5787 5786 5786 5785 5784 5783 5781 5780 5779 5778 5776 5775 5775 5774 5773 5772 5770
5789 5789 5790 5790 5790 5791 5791 5791 5791 5790 5791 5791 5791 5791 5791 5791 5790 5790 5789 5788 5787 5786 5785 5784 5783 5783 5782 5781 5780 5779 5778 5777 5775 5774 5773 5772 5770 5769 5768 5767 5766 5766 5764
5784 5784 5785 5785 5786 5786 5786 5786 5786 5786 5786 5787 5787 5787 5786 5786 5785 5785 5784 5783 5782 5781 5780 5779 5778 5778 5777 5775 5774 5774 5772 5771 5769 5768 5767 5766 5764 5763 5762 5761 5760 5759 5758
5778 5779 5780 5780 5780 5780 5780 5781 5781 5781 5782 5782 5782 5781 5781 5780 5780 5779 5778 5778 5777 5776 5775 5774 5773 5772 5771 5770 5769 5768 5766 5765 5764 5762 5761 5760 5759 5757 5756 5755 5754 5753 5752
5773 5773 5774 5774 5775 5775 5775 5775 5776 5776 5776 5777 5777 5776 5776 5775 5774 5774 5773 5772 5771 5770 5769 5768 5767 5766 5765 5764 5763 5761 5760 5759 5757 5756 5755 5753 5752 5751 5750 5749 5747 5746 5745
5767 5767 5768 5768 5769 5769 5769 5769 5770 5770 5771 5771 5771 5771 5770 5770 5769 5768 5767 5766 5765 5764 5763 5762 5761 5760 5759 5758 5756 5755 5753 5752 5750 5749 5748 5747 5746 5745 5743 5742 5740 5739 5738
5761 5761 5762 5762 5762 5762 5763 5763 5764 5764 5764 5765 5765 5764 5764 5764 5763 5762 5761 5760 5759 5758 5757 5756 5755 5754 5753 5751 5750 5748 5747 5745 5743 5742 5741 5740 5739 5737 5736 5734 5733 5731 5730
5754 5754 5755 5755 5756 5756 5757 5757 5757 5758 5758 5758 5758 5758 5757 5757 5756 5755 5754 5753 5752 5751 5750 5749 5748 5747 5745 5744 5743 5741 5739 5738 5736 5735 5734 5732 5731 5730 5728 5727 5725 5724 5722
5747 5747 5748 5748 5749 5750 5750 5750 5751 5751 5751 5751 5751 5750 5750 5749 5749 5748 5747 5746 5745 5744 5743 5742 5741 5739 5738 5737 5735 5733 5732 5730 5729 5727 5726 5725 5723 5722 5720 5719 5717 5716 5714
5740 5740 5741 5742 5742 5742 5743 5743 5743 5743 5744 5744 5744 5743 5742 5742 5741 5740 5739 5738 5737 5736 5735 5734 5732 5731 5730 5729 5727 5726 5724 5722 5721 5720 5718 5717 5715 5714 5713 5711 5709 5708 5707
5733 5733 5734 5734 5735 5735 5736 5736 5736 5736 5736 5736 5736 5735 5734 5733 5733 5732 5731 5730 5729 5728 5727 5725 5724 5722 5721 5720 5719 5718 5716 5714 5713 5711 5710 5709 5707 5706 5705 5703 5702 5700 5699
5726 5727 5727 5727 5728 5728 5728 5729 5729 5729 5728 5728 5728 5727 5726 5725 5725 5724 5722 5721 5720 5719 5717 5716 5715 5713 5712 5711 5710 5709 5707 5706 5705 5704 5702 5701 5699 5698 5697 5695 5694 5692 5691
5720 5720 5720 5720 5720 5721 5721 5721 5721 5721 5720 5720 5720 5719 5718 5717 5716 5715 5713 5712 5710 5709 5708 5706 5705 5703 5702 5701 5700 5700 5699 5698 5697 5696 5694 5693 5692 5690 5689 5687 5686 5684 5683
5713 5713 5714 5713 5713 5713 5713 5713 5713 5713 5712 5712 5712 5711 5709 5708 5707 5705 5704 5702 5701 5700 5698 5696 5695 5694 5693 5692 5692 5691 5690 5689 5688 5687 5686 5685 5684 5683 5681 5680 5678 5677 5675
5707 5707 5706 5706 5706 5706 5706 5705 5705 5705 5705 5704 5703 5702 5701 5700 5698 5696 5694 5693 5691 5690 5688 5687 5686 5685 5684 5684 5683 5682 5682 5681 5680 5679 5678 5677 5676 5675 5673 5672 5671 5669 5668
5701 5700 5700 5699 5699 5698 5698 5698 5698 5697 5697 5696 5695 5694 5692 5691 5689 5687 5685 5683 5682 5680 5679 5678 5677 5677 5676 5675 5675 5674 5673 5673 5672 5671 5670 5669 5668 5667 5665 5664 5663 5662 5660
5694 5694 5693 5693 5692 5692 5691 5691 5690 5690 5689 5688 5687 5686 5684 5682 5681 5679 5677 5675 5673 5672 5671 5670 5669 5669 5668 5668 5667 5666 5666 5665 5664 5663 5662 5661 5659 5658 5657 5656 5655 5654 5653
5687 5687 5687 5686 5686 5685 5684 5684 5683 5682 5681 5680 5678 5677 5675 5674 5672 5670 5668 5666 5665 5664 5663 5662 5661 5661 5660 5660 5659 5658 5657 5656 5655 5654 5653 5652 5651 5650 5649 5648 5647 5646 5645